Smith Lake Weather Center

Moon Phase Calendar



Smith Lake Water Level
Online Cameras

 


      

Current Conditions in Good Hope
9/24/2021 7:38:23 PM

60°F
Feels Like 59
Clear
Humidity
74%
Pressure
30.09"
Wind
3.7 mph (NNE)
Dew Point
52°F
UV Index
0/10 (Low)
Visibility
6 mi

Hourly Forecast

Date & Time Fri, Sep 24
7:00 PM
Fri, Sep 24
8:00 PM
Fri, Sep 24
9:00 PM
Fri, Sep 24
10:00 PM
Fri, Sep 24
11:00 PM
Sat, Sep 25
12:00 AM
Sat, Sep 25
1:00 AM
Sat, Sep 25
2:00 AM
Sat, Sep 25
3:00 AM
Sat, Sep 25
4:00 AM
Sat, Sep 25
5:00 AM
Sat, Sep 25
6:00 AM
Sat, Sep 25
7:00 AM
Sat, Sep 25
8:00 AM
Sat, Sep 25
9:00 AM
Sat, Sep 25
10:00 AM
Sat, Sep 25
11:00 AM
Sat, Sep 25
12:00 PM
Sat, Sep 25
1:00 PM
Sat, Sep 25
2:00 PM
Sat, Sep 25
3:00 PM
Sat, Sep 25
4:00 PM
Sat, Sep 25
5:00 PM
Sat, Sep 25
6:00 PM
Sat, Sep 25
7:00 PM
Sat, Sep 25
8:00 PM
Sat, Sep 25
9:00 PM
Sat, Sep 25
10:00 PM
Sat, Sep 25
11:00 PM
Sun, Sep 26
12:00 AM
Sun, Sep 26
1:00 AM
Sun, Sep 26
2:00 AM
Sun, Sep 26
3:00 AM
Sun, Sep 26
4:00 AM
Sun, Sep 26
5:00 AM
Sun, Sep 26
6:00 AM
Sun, Sep 26
7:00 AM
Sun, Sep 26
8:00 AM
Sun, Sep 26
9:00 AM
Sun, Sep 26
10:00 AM
Sun, Sep 26
11:00 AM
Sun, Sep 26
12:00 PM
Sun, Sep 26
1:00 PM
Sun, Sep 26
2:00 PM
Sun, Sep 26
3:00 PM
Sun, Sep 26
4:00 PM
Sun, Sep 26
5:00 PM
Sun, Sep 26
6:00 PM
Condition
Clear

Clear

Clouds

Clouds

Clouds

Clouds

Clouds

Clouds

Clouds

Clouds

Clouds

Clouds

Clouds

Clear

Clear

Clear

Clear

Clear

Clear

Clear

Clear

Clear

Clear

Clear

Clear

Clear

Clear

Clear

Clear

Clear

Clear

Clear

Clear

Clear

Clear

Clear

Clouds

Clouds

Clouds

Clouds

Clouds

Clouds

Clouds

Clear

Clear

Clear

Clear

Clear
Temperature 60°F60°F59°F59°F58°F56°F56°F55°F55°F54°F54°F54°F53°F58°F64°F69°F72°F75°F76°F77°F77°F77°F75°F70°F65°F63°F62°F61°F60°F59°F59°F59°F58°F57°F57°F57°F57°F62°F67°F72°F76°F78°F80°F80°F80°F80°F78°F72°F
Feels Like 59°F59°F59°F58°F57°F55°F54°F54°F54°F53°F53°F52°F52°F57°F63°F68°F72°F74°F75°F76°F76°F76°F75°F70°F64°F62°F61°F60°F59°F59°F58°F58°F57°F57°F56°F56°F57°F61°F67°F72°F76°F78°F80°F80°F80°F80°F78°F72°F
Cloudiness 6%7%16%31%48%55%72%100%100%100%100%100%96%0%0%0%0%0%0%0%0%0%0%0%0%0%0%0%0%0%0%0%0%0%0%3%19%89%46%31%25%21%19%1%1%0%0%0%
Visibility 6 mi6 mi6 mi6 mi6 mi6 mi6 mi6 mi6 mi6 mi6 mi6 mi6 mi6 mi6 mi6 mi6 mi6 mi6 mi6 mi6 mi6 mi6 mi6 mi6 mi6 mi6 mi6 mi6 mi6 mi6 mi6 mi6 mi6 mi6 mi6 mi6 mi6 mi6 mi6 mi6 mi6 mi6 mi6 mi6 mi6 mi6 mi6 mi
Precipitation 0%0%0%0%0%0%0%0%0%0%0%0%0%0%0%0%0%0%0%0%0%0%0%0%0%0%0%0%0%0%0%0%0%0%0%0%0%0%0%0%0%0%0%0%0%0%0%0%
Humidity 73%74%75%75%75%77%75%76%75%77%77%77%78%71%60%52%46%44%43%42%43%44%52%66%72%74%76%78%79%80%81%82%83%85%86%87%86%79%68%60%54%50%46%43%42%43%52%67%
Dew Point 51°F52°F52°F51°F50°F49°F48°F48°F47°F47°F47°F46°F47°F49°F50°F50°F51°F51°F52°F52°F52°F53°F56°F58°F55°F54°F54°F53°F53°F53°F53°F53°F53°F53°F53°F53°F53°F55°F56°F57°F58°F58°F57°F56°F55°F55°F59°F61°F
Pressure 30.09"30.09"30.09"30.09"30.09"30.09"30.09"30.09"30.09"30.09"30.09"30.09"30.12"30.12"30.12"30.15"30.12"30.12"30.09"30.06"30.06"30.03"30.03"30.06"30.06"30.09"30.09"30.09"30.09"30.12"30.12"30.12"30.12"30.12"30.12"30.12"30.15"30.15"30.18"30.18"30.15"30.15"30.12"30.09"30.06"30.06"30.06"30.06"
Wind Speed 3.9 mph3.7 mph3.7 mph3.4 mph3 mph2.6 mph2.6 mph2.2 mph2.5 mph1.6 mph2 mph1.8 mph0.6 mph0.6 mph2 mph3.3 mph3.2 mph3.9 mph4.3 mph4.3 mph4 mph3 mph3.2 mph3.7 mph4 mph3.8 mph3.2 mph1.7 mph1.2 mph1.1 mph1.5 mph2.1 mph2.2 mph2.2 mph1.9 mph1.8 mph1.3 mph1 mph1.4 mph1.4 mph1.6 mph2.3 mph2.8 mph2.9 mph2.6 mph2.2 mph1.9 mph2.7 mph
Wind
Direction
28°
NNE
24°
NNE
40°
NE
25°
NNE
38°
NE
41°
NE
45°
NE
44°
NE
84°
E
67°
ENE
359°
N
68°
ENE
13°
NNE
53°
NE
339°
NNW
345°
NNW
10°
N

N
10°
N
17°
NNE
12°
NNE

N
29°
NNE
50°
NE
45°
NE
53°
NE
53°
NE
69°
ENE
100°
E
100°
E
78°
ENE
61°
ENE
40°
NE
36°
NE
44°
NE
55°
NE
91°
E
134°
SE
174°
S
196°
SSW
237°
WSW
266°
W
288°
WNW
304°
NW
315°
NW
326°
NW

N
43°
NE

Daily Forecast

Date High Low Precip. Humidity
Today
Sep 24

Clear
72 °F
51 °F
0%
41%
Saturday
Sep 25

Clear
77 °F
53 °F
0%
44%
Sunday
Sep 26

Clouds
80 °F
57 °F
0%
46%
Monday
Sep 27

Clear
82 °F
58 °F
0%
44%
Tuesday
Sep 28

Clouds
83 °F
60 °F
0%
43%
Wednesday
Sep 29

Clear
85 °F
61 °F
0%
42%
Thursday
Sep 30

Clouds
85 °F
64 °F
0%
46%
Friday
Oct 1

Clear
85 °F
65 °F
0%
49%
Saturday
Oct 2

Clouds
79 °F
61 °F
0%
47%
Sunday
Oct 3

Clouds
82 °F
60 °F
0%
50%
Monday
Oct 4

Clouds
84 °F
63 °F
19%
49%
Tuesday
Oct 5

Rain
84 °F
65 °F
49%
48%
Wednesday
Oct 6

Rain
86 °F
66 °F
26%
48%
Thursday
Oct 7

Rain
83 °F
65 °F
24%
52%
Friday
Oct 8

Clear
83 °F
62 °F
0%
47%
Saturday
Oct 9

Rain
80 °F
62 °F
41%
53%

Temperature 8-14 Day Outlook



Precipitation 8-14 Day Outlook




Quick Links
Smith Lake News
Smith Lake Photos
Smith Lake Videos




About Us
Contact Us
Site Map
Search Site
Advertise With Us
   
www.SmithLake.info
THE SMITH LAKE WEBSITE

Copyright 2021, Lakes Online
Privacy    |    Legal